Terminal Aerodrome Forecast
Issued by NWS Sterling, VA

Current Version | Previous Version | Graphics & Text | Print | Product List | Glossary On
Versions: 1 2 3 4 5 6 7 8 9 10 11 12 13 14 15 16 17 18 19 20 21 22 23 24
000
FTUS41 KLWX 040840 AAA
TAFDCA
TAF AMD
KDCA 040840Z 0409/0506 33007KT P6SM FEW040 BKN250
     FM041200 36004KT P6SM BKN200
     FM050300 15004KT 6SM -RA BR OVC050=

USA.gov is the U.S. government's official web portal to all federal, state and local government web resources and services.